User: anonymous   Login
Location: Mason Neck State Park
(38.6428°N, 77.1981°W)
Time: 04:34:12
(UTC-04:00)
Language:

Cosmos 1400 Rocket - Orbit

View from above orbital plane
View from above orbital plane
View from above satellite
View from above satellite

Ground track
Ground track

The orbit data is extracted from the following two-line orbital elements,

1 13403U 82079B   16125.21672633  .00000408  00000-0  25908-4 0  9992
2 13403  81.1710  17.6267 0034234 183.1067 176.9950 15.06162920835153
Epoch (UTC): 04 May 2016 05:12:05
Eccentricity: 0.0034234
inclination: 81.1710°
perigee height: 524 km
apogee height: 571 km
right ascension of ascending node: 17.6267°
argument of perigee: 183.1067°
revolutions per day: 15.06162920
mean anomaly at epoch: 176.9950°
orbit number at epoch: 83515

The dashed part of the orbit path shows where the satellite is in the earth's shadow,  

DLR